Showing default

O3B FM2, 39190

Orbit data source: Space-Track

O3B FM2, 39190 is a payload satellite owned by O3B (JE) that was launched on Tue, 25 Jun 2013 UTC via a SOYUZ-ST-B launch vehicle from the French Guiana (FRGUI). Payload-class satellites include a variety of spacecraft equipped with specific instruments for various scientific and technological missions. These include communications satellites like Starlink; space stations such as the ISS; scientific satellites like the Hubble; Earth observation satellites from companies like Planet Labs, Umbra, and HawkEye 360; GPS; miniature CubeSats for education and research; and military/defense satellites.

Loading next visibility...
Identifier
39190, 2013-031C
Orbit
Active
Country
Flag of UnknownUnknown / O3B
Related business
Manufacturer
Thales Alenia
Mission
Operational Commercial Communications
Bus & Motor
PRISMA?, LS-400 AOCS?
Mass
700 kg wet, ~500 kg dry
Launch date (UTC)
2013-06-25 (12 years ago)
Launch vehicle
SOYUZ-ST-B
Launch site
French Guiana (FRGUI)
Object type
Payload
Rocket body
Debris
Shape & HBR
Trap Box + 2 Pan, 6.0 m
Radar Cross Section
21.980 m², Large (>1 m²)

Expand to show TLE details & history
Last TLE update: 20 hours ago

TLE from 20 hours ago
0 O3B FM2
1 39190U 13031C   25259.97472631 -.00000030  00000-0  00000-0 0  9996
2 39190   0.0691   0.4873 0002775 175.0783 184.4366  5.00115911223444
Epoch: 2025-09-16T23:23Z
TLE epoch observation values (Epoch: 2025-09-16T23:23:36.353Z)
Latitude
-0.00251°
Longitude
12.94113°
Altitude
8,068.363 km
Speed
5.253 km/s
True Right ascension
23h 59m 59s
True Declination
0° 00' 09"
Sunlit
Object was in full shadow at epoch
Visualization orbit readout
Latitude
Unknown
Longitude
Unknown
Altitude
Unknown
Speed
Unknown
Apparent Right ascension
Unknown
Apparent Declination
Unknown
Sunlit
N/A
Visualization observer readout
Local Sidereal Time
12:32:07
Azimuth
Unknown
Elevation
Unknown
Doppler factor
Unknown
Orbital elements
Apogee altitude
8,072.95 km
Perigee altitude
8,064.932 km
Semi-major axis
14,447.078 km
Eccentricity
0.00028
Inclination
0.0691°
RAAN
0.4873°
Arg. of periapsis
175.0783°
True anomaly
184.43414°
Mean anomaly
184.4366°
Eccentric anomaly
184.43537°
Mean motion
1.24989 °/min
Orbital period
288.02 mins
BSTAR
0
Loading maneuver chart data...
Computing Atmospheric mass density...
Loading historical data...
Loading historical data...
Loading historical data...
Loading historical data...
Loading historical data...
Loading historical data...
Loading historical data...
Other satellites on launch #31 in the year 2013 (2013-06-25 UTC)

Documentation

Showing up to 5 results
|